Location: Boursonne
(49.2024°N, 3.0468°E)
Time: 00:09:19
(UTC+00:00)

BREEZE-M DEB (TANK) - Pass Details

Date: 03 March 2021
Orbit: 308 x 15402 km, 49.5° (Epoch: 20 April)

Event Time Altitude Azimuth Distance (km) Brightness Sun altitude
Rises 19:31:58 0° 276° (W) 2,088 6.9 -19.9°
Reaches altitude 10° 19:33:21 10° 276° (W) 1,392 5.6 -20.1°
Maximum altitude 19:35:56 87° 6° (N) 560 2.2 -20.5°
Enters shadow 19:36:49 53° 92° (E) 784 2.6 -20.7°
